Погода в Романовке

Россия / Республика Бурятия     53°13′03″N   112°46′53″E
темп.,
°C
ветер,
м/с
пор.,
м/с
влажн.,
%
обл.,
%
осадки,
мм/ч
давл.,
гПа
погр.,
м
25 января, вт
вт2523:00−20зсз00100100 0.1 103110
02:00−21юз00100100 0.1 103110
05:00−22зюз00100100 0.0 10319
08:00−23зюз00100100 0.0 10329
11:00−17зюз1187100 0.0 1030132
14:00−14з1274100 0.0 1028394
17:00−18зюз1194100 0.0 10299
20:00−23зсз119992 0.0 10329
26 января, ср
ср2623:00−26з1110060 0.0 10369
02:00−29зюз1110054 0.0 10389
05:00−29юз1110064 0.0 10399
08:00−31юз1110061 0.0 10419
11:00−23юз118759 0.0 1038130
14:00−17юз127558 0.0 1034298
17:00−23ю119755 0.0 10379
20:00−29юз1110046 0.0 10419
27 января, чт
чт2723:00−31зюз1110082 0.0 10439
02:00−32юз0010091 0.0 10449
05:00−32юз0010095 0.0 10449
08:00−33юз0010087 0.0 10459
11:00−24юз118935 0.0 1042124
14:00−18юз12795 0.0 1038278
17:00−24ю11975 0.0 10399
20:00−29юз1110045 0.0 10439
28 января, пт
пт2823:00−31юз1110084 0.0 10459
02:00−32юз1110096 0.0 10459
05:00−33юз1110097 0.0 10459
08:00−34юз1110097 0.0 10469
11:00−24юз11885 0.0 1041123
14:00−18юз117436 0.0 1036262
17:00−23ю119611 0.0 10389
20:00−29зюз0110045 0.0 10429
29 января, сб
сб2923:00−31юз1110053 0.0 10449
02:00−32юз1110041 0.0 10449
05:00−33зюз1110054 0.0 10459
08:00−34ююз111006 0.0 10469
11:00−24юз11865 0.0 1041123
14:00−17юз11725 0.0 1036249
17:00−22ю11955 0.0 10389
20:00−29юз1110047 0.0 10419